01/09/2026 / 05/09/2026
| Fecha / Hora | Descripción | Porcentaje Nubes | Temperatura | Humedad | Viento | |
| martes 01/09/2026 00:00 hs | lluvia moderada | 100 % | 19.3 ° | 100 % | 5.3 Km/h | |
| martes 01/09/2026 03:00 hs | lluvia ligera | 100 % | 19.2 ° | 99 % | 8.6 Km/h | |
| martes 01/09/2026 06:00 hs | nubes | 100 % | 18.9 ° | 98 % | 6 Km/h | |
| martes 01/09/2026 09:00 hs | nubes | 100 % | 20.2 ° | 93 % | 6.8 Km/h | |
| martes 01/09/2026 12:00 hs | lluvia ligera | 94 % | 23 ° | 85 % | 9.7 Km/h | |
| martes 01/09/2026 15:00 hs | lluvia ligera | 64 % | 25.1 ° | 63 % | 15.3 Km/h | |
| martes 01/09/2026 18:00 hs | algo de nubes | 13 % | 21 ° | 88 % | 11.4 Km/h | |
| martes 01/09/2026 21:00 hs | algo de nubes | 14 % | 18.7 ° | 93 % | 8.7 Km/h | |
| miércoles 02/09/2026 00:00 hs | muy nuboso | 59 % | 17.3 ° | 91 % | 6.5 Km/h | |
| miércoles 02/09/2026 03:00 hs | muy nuboso | 59 % | 17.2 ° | 90 % | 4.6 Km/h | |
| miércoles 02/09/2026 06:00 hs | muy nuboso | 78 % | 15.8 ° | 85 % | 3.7 Km/h | |
| miércoles 02/09/2026 09:00 hs | nubes dispersas | 39 % | 20.1 ° | 69 % | 2.5 Km/h | |
| miércoles 02/09/2026 12:00 hs | lluvia ligera | 26 % | 23.7 ° | 70 % | 8.2 Km/h | |
| miércoles 02/09/2026 15:00 hs | muy nuboso | 54 % | 22.3 ° | 67 % | 7.7 Km/h | |
| miércoles 02/09/2026 18:00 hs | nubes dispersas | 46 % | 15.5 ° | 84 % | 5.7 Km/h | |
| miércoles 02/09/2026 21:00 hs | nubes dispersas | 25 % | 14.1 ° | 89 % | 3.3 Km/h | |
| jueves 03/09/2026 00:00 hs | cielo claro | 2 % | 13.6 ° | 91 % | 4.9 Km/h | |
| jueves 03/09/2026 03:00 hs | algo de nubes | 20 % | 13.1 ° | 94 % | 7.4 Km/h | |
| jueves 03/09/2026 06:00 hs | nubes | 95 % | 12.7 ° | 96 % | 6.6 Km/h | |
| jueves 03/09/2026 09:00 hs | muy nuboso | 51 % | 17 ° | 74 % | 8 Km/h | |
| jueves 03/09/2026 12:00 hs | cielo claro | 0 % | 21.4 ° | 58 % | 11.3 Km/h | |
| jueves 03/09/2026 15:00 hs | cielo claro | 0 % | 20.5 ° | 67 % | 14.4 Km/h | |
| jueves 03/09/2026 18:00 hs | cielo claro | 0 % | 16.3 ° | 89 % | 9.5 Km/h | |
| jueves 03/09/2026 21:00 hs | cielo claro | 0 % | 15.2 ° | 94 % | 5.2 Km/h | |
| viernes 04/09/2026 00:00 hs | cielo claro | 0 % | 14.3 ° | 94 % | 6.6 Km/h | |
| viernes 04/09/2026 03:00 hs | cielo claro | 0 % | 14 ° | 94 % | 6.6 Km/h | |
| viernes 04/09/2026 06:00 hs | cielo claro | 0 % | 14.3 ° | 93 % | 9.1 Km/h | |
| viernes 04/09/2026 09:00 hs | cielo claro | 0 % | 20.1 ° | 72 % | 6.8 Km/h | |
| viernes 04/09/2026 12:00 hs | algo de nubes | 18 % | 22.8 ° | 65 % | 8.6 Km/h | |
| viernes 04/09/2026 15:00 hs | lluvia ligera | 59 % | 18.6 ° | 89 % | 11.4 Km/h | |
| viernes 04/09/2026 18:00 hs | lluvia moderada | 100 % | 16.7 ° | 96 % | 13.4 Km/h | |
| viernes 04/09/2026 21:00 hs | lluvia moderada | 100 % | 16 ° | 95 % | 6.4 Km/h | |
| sábado 05/09/2026 00:00 hs | lluvia ligera | 100 % | 15.2 ° | 93 % | 9.1 Km/h | |
| sábado 05/09/2026 03:00 hs | lluvia ligera | 100 % | 14.7 ° | 95 % | 7 Km/h | |
| sábado 05/09/2026 06:00 hs | lluvia ligera | 100 % | 14.5 ° | 95 % | 5 Km/h | |
| sábado 05/09/2026 09:00 hs | lluvia moderada | 100 % | 14.3 ° | 97 % | 8.1 Km/h | |
| sábado 05/09/2026 12:00 hs | lluvia moderada | 100 % | 15 ° | 94 % | 7.5 Km/h | |
| sábado 05/09/2026 15:00 hs | lluvia ligera | 100 % | 14.6 ° | 95 % | 10.7 Km/h | |
| sábado 05/09/2026 18:00 hs | lluvia ligera | 100 % | 13.9 ° | 95 % | 12.6 Km/h | |
| sábado 05/09/2026 21:00 hs | lluvia ligera | 100 % | 13.5 ° | 94 % | 10.5 Km/h |
Fuente: Open Weather Map
© 2009 / 2026 - BrasilPlayas.com
Diseño y desarrollo: ArraialWebDesign
Los artículos publicados en esta web son propiedad intelectual de sus respectivos autores, que se reservan todos los derechos sobre los mismos
Las imágenes contenidas en este sitio están sujetas a la respectiva licencia y acreditación que las acompaña
Este website usa Cookies. Saber más sobre nuestra política de Cookies